Weather History for Canon City Fremont County, CO

Change the Weather History Date:

Wednesday, May 7, 2014

  Actual Average (KPUB) Record (KPUB)
Temperature  
Mean Temperature 62 °F 58 °F  
Max Temperature 73 °F 74 °F 93 °F (1963)
Min Temperature 51 °F 41 °F 27 °F (1915)
Degree Days  
Heating Degree Days 3 8  
Month to date heating degree days 61  
Since 1 July heating degree days 5501  
Cooling Degree Days 0 0  
Month to date cooling degree days 0  
Year to date cooling degree days 2  
Growing Degree Days 12 (Base 50)    
Moisture  
Dew Point 21 °F    
Average Humidity 23    
Maximum Humidity 41    
Minimum Humidity 13    
Precipitation  
Precipitation 0.00 in 0.05 in 0.62 in (2008)
Month to date precipitation 0.36  
Year to date precipitation 3.34  
Snow  
Snow 0.00 in 0.00 in 1.50 in (1938)
Month to date snowfall 0.3  
Since 1 July snowfall 31.6  
Snow Depth -    
Sea Level Pressure  
Sea Level Pressure 29.65 in    
Wind  
Wind Speed 10 mph (WSW)    
Max Wind Speed 36 mph    
Max Gust Speed 46 mph    
Visibility 10 miles    
Events Thunderstorm    
T = Trace of Precipitation, MM = Missing Value Source: NWS Daily Summary

Daily Weather History Graph

Daily Weather History Graph

Search for Another Location

Airport:

Trip Planner

Search our weather history database for the weather conditions in past years. The results will help you decide how hot, cold, wet, or windy it might be!

Date:

Astronomy

May. 07, 2014 Rise Set
Actual Time 5:56 AM MDT 7:57 PM MDT
Civil Twilight 5:27 AM MDT 8:26 PM MDT
Nautical Twilight 4:52 AM MDT 9:02 PM MDT
Astronomical Twilight 4:14 AM MDT 9:40 PM MDT
Moon 1:10 PM MDT (5/7) 1:51 AM MDT (5/7)
Length of Visible Light 14h 59m
Length of Day
14h 01m
First Quarter, 56% of the Moon is Illuminated
May 7
First Quarter
May 14
Full
May 21
Last Quarter
May 28
New
Jun 5
First Quarter

Hourly Weather History & Observations

Time (MDT) Temp. Dew Point Humidity Pressure Visibility Wind Dir Wind Speed Gust Speed Precip Events Conditions
12:10 AM 60.8 °F 12.2 °F 15% 29.65 in 10.0 mi WNW 3.5 mph - N/A   Clear
12:30 AM 57.2 °F 14.0 °F 18% 29.65 in 10.0 mi WNW 3.5 mph - N/A   Clear
12:50 AM 53.6 °F 14.0 °F 21% 29.65 in 10.0 mi North 6.9 mph - N/A   Clear
1:10 AM 57.2 °F 14.0 °F 18% 29.65 in 10.0 mi West 8.1 mph - N/A   Clear
1:30 AM 62.6 °F 14.0 °F 15% 29.65 in 10.0 mi WSW 16.1 mph - N/A   Clear
1:50 AM 59.0 °F 15.8 °F 19% 29.65 in 10.0 mi SW 8.1 mph - N/A   Clear
2:10 AM 62.6 °F 15.8 °F 16% 29.65 in 10.0 mi SSW 11.5 mph 19.6 mph N/A   Clear
2:30 AM 60.8 °F 17.6 °F 19% 29.66 in 10.0 mi WSW 5.8 mph 10.4 mph N/A   Clear
2:50 AM 60.8 °F 15.8 °F 17% 29.65 in 10.0 mi SW 4.6 mph - N/A   Clear
3:10 AM 60.8 °F 15.8 °F 17% 29.66 in 10.0 mi SW 11.5 mph - N/A   Clear
3:30 AM 57.2 °F 17.6 °F 21% 29.66 in 10.0 mi WSW 9.2 mph - N/A   Clear
3:50 AM 55.4 °F 17.6 °F 23% 29.66 in 10.0 mi West 10.4 mph - N/A   Clear
4:10 AM 55.4 °F 15.8 °F 21% 29.66 in 10.0 mi West 4.6 mph - N/A   Clear
4:30 AM 55.4 °F 15.8 °F 21% 29.67 in 10.0 mi West 8.1 mph - N/A   Clear
4:50 AM 51.8 °F 17.6 °F 26% 29.68 in 10.0 mi Calm Calm - N/A   Clear
5:10 AM 53.6 °F 15.8 °F 22% 29.68 in 10.0 mi North 3.5 mph - N/A   Clear
5:30 AM 51.8 °F 17.6 °F 26% 29.69 in 10.0 mi South 3.5 mph - N/A   Clear
5:50 AM 53.6 °F 17.6 °F 24% 29.70 in 10.0 mi SW 3.5 mph - N/A   Clear
6:10 AM 51.8 °F 15.8 °F 24% 29.70 in 10.0 mi Calm Calm - N/A   Clear
6:25 AM 53.6 °F 15.8 °F 22% 29.70 in 10.0 mi West 3.5 mph - N/A   Clear
1:30 PM 73.4 °F 19.4 °F 13% 29.63 in 10.0 mi SSE 10.4 mph 24.2 mph N/A   Clear
1:50 PM 71.6 °F 19.4 °F 14% 29.63 in 10.0 mi SSE 18.4 mph 33.4 mph N/A   Scattered Clouds
2:10 PM 73.4 °F 21.2 °F 14% 29.61 in 10.0 mi East 11.5 mph 26.5 mph N/A   Scattered Clouds
2:30 PM 71.6 °F 17.6 °F 13% 29.61 in 10.0 mi SSE 3.5 mph - N/A   Scattered Clouds
2:50 PM 73.4 °F 19.4 °F 13% 29.59 in 10.0 mi SSE 16.1 mph 23.0 mph N/A   Clear
3:10 PM 71.6 °F 21.2 °F 15% 29.59 in 10.0 mi ESE 13.8 mph 17.3 mph N/A   Clear
3:30 PM 71.6 °F 19.4 °F 14% 29.59 in 10.0 mi SE 6.9 mph - N/A   Clear
3:50 PM 73.4 °F 19.4 °F 13% 29.58 in 10.0 mi WSW 19.6 mph 31.1 mph N/A   Scattered Clouds
4:10 PM 69.8 °F 19.4 °F 15% 29.58 in 10.0 mi WSW 9.2 mph 15.0 mph N/A   Scattered Clouds
4:30 PM 71.6 °F 21.2 °F 15% 29.57 in 10.0 mi SW 17.3 mph 23.0 mph N/A   Scattered Clouds
4:50 PM 69.8 °F 19.4 °F 15% 29.58 in 10.0 mi SSW 21.9 mph 26.5 mph N/A   Clear
5:10 PM 69.8 °F 21.2 °F 16% 29.59 in 10.0 mi WSW 19.6 mph 27.6 mph N/A   Scattered Clouds
5:30 PM 68.0 °F 23.0 °F 18% 29.61 in 10.0 mi West 26.5 mph 33.4 mph N/A   Scattered Clouds
5:50 PM 62.6 °F 28.4 °F 27% 29.63 in 10.0 mi WSW 35.7 mph 46.0 mph N/A   Clear
6:10 PM 60.8 °F 30.2 °F 31% 29.62 in 10.0 mi West 18.4 mph 43.7 mph N/A   Clear
6:30 PM 60.8 °F 28.4 °F 29% 29.63 in 10.0 mi West 18.4 mph 21.9 mph N/A   Clear
6:50 PM 60.8 °F 28.4 °F 29% 29.63 in 10.0 mi West 18.4 mph - N/A   Clear
7:10 PM 60.8 °F 26.6 °F 27% 29.62 in 10.0 mi West 28.8 mph 33.4 mph N/A   Clear
7:30 PM 60.8 °F 26.6 °F 27% 29.65 in 10.0 mi WSW 17.3 mph 26.5 mph N/A   Clear
7:50 PM 60.8 °F 26.6 °F 27% 29.66 in 10.0 mi West 17.3 mph 24.2 mph N/A   Clear
8:10 PM 60.8 °F 26.6 °F 27% 29.66 in 10.0 mi WSW 25.3 mph 33.4 mph N/A   Clear
8:30 PM 59.0 °F 24.8 °F 27% 29.66 in 10.0 mi WSW 20.7 mph 32.2 mph N/A   Clear
8:50 PM 59.0 °F 26.6 °F 29% 29.71 in 10.0 mi WSW 20.7 mph 32.2 mph N/A   Clear
9:10 PM 59.0 °F 26.6 °F 29% 29.71 in 10.0 mi WSW 19.6 mph 33.4 mph N/A   Scattered Clouds
9:30 PM 57.2 °F 26.6 °F 31% 29.69 in 10.0 mi West 19.6 mph 25.3 mph N/A   Clear
9:50 PM 55.4 °F 28.4 °F 36% 29.70 in 10.0 mi West 13.8 mph - N/A Thunderstorm Clear
10:10 PM 53.6 °F 30.2 °F 41% 29.70 in 10.0 mi WSW 16.1 mph 23.0 mph N/A   Clear
10:30 PM 53.6 °F 28.4 °F 38% 29.71 in 10.0 mi WSW 12.7 mph 18.4 mph N/A   Clear
10:50 PM 53.6 °F 28.4 °F 38% 29.71 in 10.0 mi West 12.7 mph - N/A Thunderstorm Clear
11:10 PM 53.6 °F 28.4 °F 38% 29.73 in 10.0 mi WSW 9.2 mph - N/A   Clear
11:30 PM 53.6 °F 28.4 °F 38% 29.74 in 10.0 mi West 10.4 mph - N/A   Clear
11:50 PM 55.4 °F 26.6 °F 33% 29.74 in 10.0 mi West 18.4 mph 31.1 mph N/A   Scattered Clouds